Wind_Speed
78 78 78 78 78 78 79 79 79 78 78 78 77 78 79 80 81 81 81 81 82 82 83 84 84 84 84 86 87 87 87 87 86 86 86 86 86 86 86 87 88 88 87 87 87 86 86 87 87 88 87 86 86 86 85 84 84 84 83 83 82 81 81
81 81 81 81 81 81 82 82 81 80 80 79 79 79 80 81 82 82 82 83 83 84 85 85 85 85 85 87 88 87 87 87 87 87 86 86 86 86 86 87 88 89 88 88 88 87 87 87 87 87 87 86 86 86 86 85 84 84 83 82 82 81 81
83 83 83 83 84 84 84 84 83 82 82 81 81 81 82 83 83 84 84 84 84 85 86 86 86 86 86 88 88 88 87 87 87 87 86 86 86 86 86 87 88 88 89 88 88 88 87 86 86 86 86 86 86 86 86 85 84 83 83 82 82 81 80
84 84 84 85 86 86 85 84 83 83 83 83 83 83 83 84 84 84 84 85 85 85 87 87 86 86 86 87 88 87 87 87 87 87 86 85 85 86 86 86 87 88 89 89 89 88 87 86 86 86 86 86 86 85 84 83 83 83 82 82 81 80 80
85 85 86 87 87 86 85 84 84 84 84 84 83 84 84 84 84 85 85 85 86 86 87 87 86 86 86 87 87 87 87 87 87 86 86 85 85 85 86 87 88 88 89 89 89 88 87 86 86 86 85 84 84 83 83 83 82 82 81 81 80 80 80
87 88 88 87 85 84 84 84 84 84 83 83 83 83 84 84 85 86 86 86 87 87 87 87 86 86 86 87 87 87 87 87 87 86 86 85 85 86 87 87 88 88 89 89 88 87 87 85 84 83 83 82 82 82 82 82 81 81 80 80 80 81 81
88 88 87 85 83 83 83 83 83 83 82 82 83 83 84 85 86 86 87 87 87 87 87 86 86 86 86 87 87 86 87 87 86 86 86 85 86 87 87 87 87 87 87 87 86 86 84 83 82 81 81 80 80 81 81 80 80 80 80 81 82 82 83
87 85 84 83 83 83 82 82 82 82 82 83 83 84 85 86 86 87 87 87 86 86 86 86 86 86 86 86 86 85 85 85 85 85 85 85 85 86 86 86 86 86 85 85 84 83 81 80 80 79 78 78 79 79 79 79 80 81 81 82 83 83 83
83 83 82 82 82 82 82 82 82 82 83 83 84 85 86 86 86 86 86 86 85 85 85 85 85 85 85 84 84 84 83 83 83 83 83 83 84 84 84 84 84 84 83 82 81 80 79 78 77 77 77 77 78 78 79 81 82 82 82 83 83 83 82
81 81 80 80 80 81 81 82 82 83 83 84 85 85 86 85 85 85 85 85 84 84 84 84 84 83 83 82 82 81 81 81 81 81 81 81 81 82 82 82 82 82 81 80 79 78 77 77 76 76 77 78 78 79 81 82 83 82 83 83 83 81 81
79 79 79 79 80 80 81 82 82 83 83 84 84 84 84 84 84 84 84 83 83 83 82 82 82 81 80 80 79 79 78 79 79 79 79 79 79 79 80 80 80 80 79 79 78 77 77 77 76 77 78 79 80 81 82 82 83 83 83 83 82 80 80
78 79 79 79 80 80 81 81 82 82 82 83 83 83 84 83 83 82 82 81 80 80 79 79 78 78 77 77 76 76 76 76 76 77 77 77 78 78 78 78 79 79 79 78 77 77 77 77 77 79 80 80 81 82 82 82 83 83 82 82 81 80 79
78 78 78 79 79 79 80 80 80 81 81 82 82 82 81 81 80 79 78 77 76 76 75 75 75 74 73 73 73 73 74 74 75 76 76 77 78 78 78 78 79 79 79 79 79 78 78 78 79 81 81 81 82 83 83 83 82 82 82 81 80 79 79
76 76 77 77 77 77 78 78 79 79 79 79 78 78 77 77 75 74 74 73 72 72 71 71 71 71 71 71 72 72 73 74 75 76 77 78 79 79 79 79 80 80 80 80 80 80 79 80 82 82 82 82 83 82 82 82 81 81 81 81 80 79 79
74 74 75 75 75 75 75 76 76 76 75 75 74 74 73 73 72 71 70 70 70 70 70 70 71 71 71 71 72 73 74 75 77 78 79 79 80 80 80 80 80 80 81 82 82 81 81 82 82 82 81 81 81 81 80 81 81 81 80 80 79 78 76
74 73 73 73 73 72 72 72 72 71 70 70 70 70 70 70 70 69 69 69 69 70 70 71 71 72 72 72 73 74 76 77 78 79 80 80 80 81 81 81 80 81 82 82 82 81 81 80 80 80 80 80 80 80 80 80 80 79 79 78 76 75 74
71 70 69 68 68 67 66 67 67 66 66 67 67 68 69 69 70 70 70 70 70 70 70 71 72 73 74 74 75 76 78 79 80 80 80 80 80 80 80 80 80 80 81 81 80 79 79 78 79 79 79 79 79 79 79 79 78 77 76 76 74 73 72
65 64 64 63 63 63 63 64 64 65 65 66 67 68 69 70 70 70 70 70 71 71 72 73 74 74 75 75 75 76 77 78 79 78 78 78 79 79 79 78 78 78 78 78 78 78 77 77 77 78 78 78 77 77 77 77 75 75 75 74 73 72 72
61 61 61 61 61 62 62 63 64 65 65 66 68 69 70 70 70 71 71 72 72 72 73 73 73 73 73 72 73 73 74 75 76 76 75 76 77 76 75 75 75 75 75 76 76 76 75 75 75 76 76 75 75 75 75 74 73 74 74 73 72 72 73
59 60 60 61 62 62 63 63 64 65 66 67 68 69 70 70 71 71 71 71 70 70 70 70 70 70 69 69 69 69 70 71 71 71 71 72 72 71 70 71 72 72 72 73 73 73 73 73 73 73 74 74 73 74 74 74 73 73 73 73 72 73 74
59 60 61 61 62 62 63 63 64 64 65 66 67 68 68 68 68 68 68 67 67 67 66 66 66 66 66 65 65 65 65 65 66 67 68 68 68 67 68 70 70 70 71 71 71 71 72 72 71 72 72 73 73 73 73 74 74 73 73 74 74 75 76
56 57 58 59 59 60 60 61 61 62 63 63 64 64 64 64 64 65 65 64 64 64 63 63 63 63 62 62 62 62 63 63 64 66 67 67 67 67 68 70 70 70 71 71 71 71 71 71 71 71 72 72 73 73 74 75 75 75 76 77 78 79 80
53 54 55 56 56 57 58 58 59 59 59 60 60 60 61 61 61 62 62 62 61 61 61 61 61 61 61 62 62 63 63 64 65 67 68 68 68 69 70 71 71 71 71 72 72 72 72 71 72 72 73 73 74 75 76 77 78 79 81 82 82 83 83
51 51 52 52 53 54 55 55 56 56 56 57 57 58 58 59 60 60 61 61 61 61 61 61 61 62 62 63 64 65 66 66 67 69 70 70 71 72 73 74 74 74 74 74 74 74 74 74 74 75 75 76 77 78 80 81 82 83 84 84 84 84 83
50 50 51 51 51 52 53 54 54 55 56 56 57 58 59 59 60 61 62 62 62 63 63 64 64 65 66 66 67 68 69 69 70 71 72 73 74 74 75 76 77 77 78 78 77 77 77 76 77 77 78 79 80 82 83 84 84 84 84 84 84 83 82
50 50 51 51 51 52 53 54 55 56 57 58 59 59 61 61 62 63 64 65 65 65 66 67 68 69 69 70 70 71 71 71 72 73 74 75 76 77 77 78 79 79 80 80 80 80 79 79 78 78 78 79 80 81 82 82 83 83 83 83 83 82 81
52 52 52 52 53 54 55 56 57 58 60 61 62 63 64 65 66 66 67 67 67 68 69 69 70 70 70 71 71 72 72 73 73 74 75 75 76 76 77 78 79 79 80 80 80 80 80 80 79 79 78 78 78 78 79 80 81 81 81 81 82 82 81
56 56 56 56 57 58 58 59 61 62 64 65 66 66 67 68 68 69 69 68 68 68 68 69 69 69 70 70 71 71 72 73 73 73 74 74 75 76 77 77 78 79 79 79 80 80 80 80 80 80 79 78 78 78 78 79 80 81 81 82 83 82 81
61 61 61 61 62 62 62 63 64 65 66 67 68 68 68 68 69 69 68 67 67 68 68 69 70 71 71 71 72 72 72 73 73 74 74 75 76 77 77 78 79 80 80 80 81 81 81 81 81 81 81 80 80 79 80 80 81 81 82 82 82 81 79
65 65 64 64 65 65 65 65 64 65 66 67 67 68 68 68 68 69 68 67 68 69 70 70 71 71 72 72 73 73 73 73 74 74 75 75 76 76 77 77 78 79 79 80 80 80 81 81 82 81 81 81 80 80 80 80 80 80 80 80 79 77 74
66 66 66 66 66 65 65 65 65 65 66 66 67 68 67 66 67 69 68 68 69 70 71 71 70 70 71 72 72 73 73 73 73 73 73 73 73 74 74 74 74 74 75 76 77 77 77 78 78 78 78 77 77 77 76 76 76 76 76 74 73 70 68
64 64 64 64 65 65 65 64 64 65 65 66 67 67 66 65 67 68 68 68 69 70 70 70 69 69 69 69 69 69 69 69 69 69 69 68 68 68 68 68 68 68 69 70 71 71 72 72 72 72 72 71 71 71 70 70 70 70 69 68 66 64 62
60 59 60 60 61 62 62 62 62 63 63 64 65 64 64 64 65 66 66 65 65 66 66 66 66 66 65 65 64 64 63 63 64 65 65 66 66 66 66 67 67 68 68 68 68 69 69 69 69 69 69 68 67 67 66 66 65 65 65 64 63 61 59
56 56 56 56 57 58 58 59 60 61 61 62 61 61 60 61 61 61 61 61 61 60 60 60 60 61 61 61 62 62 63 63 64 65 66 67 68 69 69 70 70 71 71 71 71 71 71 70 70 70 70 69 69 68 67 66 65 65 64 64 62 61 60
50 52 52 53 53 54 54 55 55 56 57 57 56 55 55 55 55 56 56 56 57 57 57 58 59 60 61 62 63 64 65 65 66 67 67 68 69 70 71 72 73 74 74 74 74 74 74 74 73 73 72 72 71 70 69 68 67 67 66 65 64 63 62
47 48 49 49 50 50 50 50 51 51 51 51 50 50 50 50 51 52 53 55 56 58 59 59 60 61 61 61 62 62 62 63 63 64 65 66 66 67 67 69 70 71 73 73 74 75 75 75 75 75 75 75 74 73 72 71 70 69 68 67 66 65 64
Wind_Direction
275 275 275 275 275 276 276 276 275 275 275 275 275 275 275 275 274 275 275 275 275 276 276 276 276 275 275 274 274 274 274 274 275 275 275 275 275 275 275 274 274 274 274 273 273 272 272 272 272 272 273 273 273 273 272 272 271 271 271 271 270 269 269
275 275 275 275 276 276 277 276 276 276 276 276 276 276 276 275 275 275 275 275 276 276 276 275 275 275 275 274 274 274 274 274 274 275 275 275 275 274 274 274 273 273 273 273 272 272 272 272 272 273 273 273 273 273 272 272 272 272 271 271 270 270 270
275 275 275 275 276 277 277 276 276 276 276 276 277 277 276 276 275 275 276 276 276 276 276 276 276 276 275 274 274 274 274 274 275 275 275 275 274 274 273 273 272 272 272 272 272 271 271 272 272 272 272 272 272 272 272 272 272 272 271 271 271 270 270
275 275 275 276 277 277 277 276 275 276 276 276 277 276 276 276 276 276 276 276 276 276 276 276 276 276 275 275 274 274 274 274 275 275 275 274 274 273 272 271 271 271 271 271 271 271 272 272 271 271 271 272 272 272 272 271 271 271 271 271 271 270 270
275 275 276 277 278 277 277 276 276 276 276 277 277 276 276 276 276 276 276 277 276 276 276 276 276 276 275 274 274 274 274 275 275 275 274 273 272 272 271 270 270 270 271 271 271 271 271 271 271 271 271 271 271 271 271 271 271 271 271 271 270 270 270
275 276 278 278 278 277 277 276 277 277 277 277 276 276 276 276 276 276 276 276 276 276 276 276 275 275 274 274 274 274 274 274 274 274 273 273 272 271 270 270 270 270 270 270 271 271 271 271 271 271 270 270 270 270 270 270 270 270 270 270 270 269 269
277 278 278 277 277 277 277 276 276 276 276 275 275 275 275 275 276 276 276 276 276 275 275 275 275 274 273 273 273 273 274 274 274 273 272 272 271 270 270 270 270 269 269 270 270 270 271 271 270 270 270 270 270 269 270 270 270 270 270 269 269 269 270
278 278 278 277 277 277 277 276 276 276 275 275 275 275 275 276 276 276 275 275 275 275 274 274 274 273 273 273 273 273 273 273 272 272 271 271 270 270 270 269 269 269 269 269 270 270 270 270 270 270 270 269 269 270 270 270 270 269 269 270 270 270 270
279 278 278 278 278 277 277 276 276 276 276 276 276 276 276 276 276 276 275 275 275 274 274 274 274 274 274 274 273 273 272 272 271 271 271 270 270 269 269 269 268 268 269 269 269 270 270 270 270 270 270 270 270 270 270 270 270 270 270 270 269 269 269
279 278 278 277 277 277 277 277 277 277 277 277 277 277 276 276 276 276 275 275 275 274 274 274 274 274 273 273 273 272 272 271 271 271 270 270 269 269 268 268 268 269 269 269 269 270 270 270 270 270 270 270 270 270 270 270 270 270 269 269 269 269 269
278 278 277 277 277 277 277 277 277 277 277 277 277 276 276 276 275 275 275 275 274 274 274 274 273 273 273 272 272 272 271 271 270 270 269 269 268 268 268 268 269 269 269 269 269 270 270 270 270 270 270 271 271 270 270 270 269 269 269 269 269 269 269
278 277 277 277 277 277 277 276 276 276 276 276 276 276 275 275 275 274 274 274 274 273 273 272 272 272 271 271 271 271 270 270 269 269 268 268 268 268 268 268 269 269 269 269 270 269 270 270 270 270 270 271 270 270 269 269 269 269 269 269 269 269 269
277 277 277 276 276 276 276 276 275 275 275 275 275 275 275 274 274 274 273 273 272 272 271 271 271 270 270 270 270 269 269 269 268 268 268 268 268 268 268 269 269 269 270 270 270 270 270 271 271 270 270 270 269 269 269 269 269 269 269 269 270 270 270
277 276 276 276 276 275 275 275 275 275 275 275 275 274 274 273 273 272 272 272 271 271 270 270 270 270 270 269 269 269 269 269 269 269 268 268 268 269 269 269 269 269 270 270 270 270 271 270 270 270 270 269 268 268 269 269 269 269 270 270 270 270 270
276 276 276 275 275 275 275 275 275 274 274 273 273 272 272 272 271 271 270 270 270 270 270 270 270 270 270 270 270 270 270 270 269 269 269 269 269 269 269 269 269 269 270 270 270 270 270 270 269 269 269 268 268 268 268 269 269 269 270 270 270 270 270
275 274 274 275 274 274 274 274 273 273 272 272 271 271 271 271 271 271 270 270 270 270 270 270 270 271 271 270 270 270 270 270 270 270 270 270 269 269 269 269 269 270 270 270 270 270 270 269 269 269 268 268 268 268 268 268 269 269 270 270 269 269 269
274 274 274 274 274 273 273 272 272 272 272 271 271 271 271 271 271 272 272 271 271 271 271 272 272 272 272 271 271 271 270 270 270 270 270 270 270 269 269 270 270 270 270 270 270 269 269 269 268 268 268 268 268 268 268 268 269 269 269 269 268 268 268
276 275 275 274 274 273 273 273 273 273 273 272 272 273 273 273 273 273 273 273 273 272 272 272 272 272 272 272 271 271 271 270 270 270 270 270 269 269 269 270 269 269 269 269 268 268 268 267 267 268 268 268 268 268 268 268 269 269 268 268 268 268 268
276 276 276 275 274 274 274 274 274 274 274 274 274 274 274 274 274 274 274 274 273 273 272 272 271 271 271 271 271 271 271 271 270 270 269 269 269 269 269 269 268 267 267 267 267 268 268 267 267 267 267 268 268 268 268 268 268 268 268 268 268 267 267
276 276 276 276 276 275 275 275 275 275 275 275 275 275 275 275 274 274 273 273 273 273 272 272 272 272 272 271 271 271 271 271 270 270 269 269 269 269 269 268 267 267 267 267 267 267 268 267 267 268 268 268 268 268 268 268 268 268 268 268 268 267 267
277 277 277 277 277 277 277 276 277 277 276 276 276 276 275 275 274 274 273 273 273 273 273 273 273 272 272 271 270 270 269 269 270 270 269 268 269 269 268 267 267 267 267 267 267 268 268 268 268 268 269 269 269 269 269 269 268 268 267 267 267 267 267
279 279 279 279 279 279 279 278 278 277 277 276 276 275 275 274 274 274 273 273 273 273 273 273 272 272 271 271 270 270 269 269 269 269 269 270 269 269 268 268 268 268 268 268 268 268 269 269 269 269 269 270 270 270 270 269 269 268 267 267 266 267 267
281 280 280 280 280 279 279 278 277 276 276 275 275 275 274 274 274 274 274 274 273 273 273 273 272 272 272 272 272 271 271 270 270 271 271 271 271 270 270 269 269 269 269 269 269 269 269 269 269 269 269 269 269 269 269 268 268 268 268 268 268 268 269
282 281 280 280 280 279 279 278 277 276 276 276 276 275 275 275 275 275 275 275 275 274 274 273 273 273 273 273 273 273 272 272 272 272 272 272 272 271 271 270 270 269 269 268 268 269 269 269 268 268 268 268 267 267 267 267 267 268 268 269 270 270 271
284 283 282 281 281 281 280 279 279 278 278 277 277 277 277 277 277 277 277 277 277 276 276 275 275 274 274 274 273 273 273 273 272 272 272 271 271 271 270 270 270 269 268 268 267 267 267 267 267 267 267 266 266 267 267 268 268 269 269 270 271 271 271
286 285 284 283 282 281 281 281 281 280 280 279 279 279 278 278 278 278 278 278 278 278 278 278 277 276 276 275 274 274 273 272 272 272 271 271 271 270 270 270 270 270 269 269 268 267 266 266 266 265 265 266 266 267 268 269 269 270 270 271 271 271 271
285 284 283 282 282 281 281 281 281 281 281 281 280 280 280 280 280 279 279 279 279 279 279 278 278 277 276 276 275 274 274 273 272 272 271 271 271 271 270 270 270 270 270 269 269 269 268 267 266 266 265 265 266 267 267 268 268 269 269 270 270 270 271
285 284 283 282 281 281 281 281 281 281 281 281 281 281 280 280 280 280 280 280 280 279 279 278 277 276 276 275 275 274 274 273 273 272 272 271 271 271 270 270 270 270 270 270 270 269 269 268 267 266 266 265 265 265 266 266 267 268 268 269 269 270 271
285 284 283 282 282 281 281 281 281 282 282 281 281 281 281 281 281 280 280 280 280 279 278 277 277 277 276 276 276 275 275 274 274 273 272 272 271 271 271 270 270 270 270 269 269 269 269 269 268 268 267 266 266 265 265 265 266 266 267 268 268 269 270
285 284 283 282 281 281 281 281 280 280 281 281 281 281 281 281 281 280 280 280 279 278 278 278 278 278 278 278 277 276 276 275 274 274 273 272 272 271 271 270 270 270 270 269 269 268 268 268 268 268 267 267 267 266 266 265 265 265 266 266 267 268 269
286 284 283 282 281 281 281 281 281 280 280 280 280 280 281 282 281 281 280 280 279 279 279 279 278 278 278 278 278 277 277 276 275 274 273 272 272 271 271 270 270 269 269 269 269 268 268 268 268 267 267 267 267 266 266 266 266 266 266 266 266 266 266
287 286 285 284 283 282 281 281 281 281 281 281 281 281 282 282 281 281 282 281 281 281 281 280 280 279 278 278 277 277 277 276 276 275 274 273 272 272 271 270 270 269 268 268 268 268 268 268 268 267 267 267 266 266 266 265 265 265 265 265 265 264 264
291 289 288 287 285 284 283 282 282 281 281 281 282 283 283 282 282 282 282 282 282 282 282 281 281 280 280 279 278 277 276 276 275 275 275 274 273 272 271 270 270 269 268 268 267 267 267 267 267 267 266 266 265 265 264 264 264 264 264 264 264 263 263
295 293 292 290 289 289 288 287 286 286 285 285 286 286 286 285 285 285 284 284 283 283 283 282 282 281 281 280 279 278 277 276 275 274 273 273 273 272 272 271 270 269 268 268 267 266 266 266 266 265 265 265 265 264 264 263 263 263 263 263 263 263 263
296 295 294 293 292 292 291 291 290 290 290 289 289 289 289 288 288 288 287 287 286 285 285 284 283 282 282 281 280 279 278 277 276 275 274 273 272 271 271 270 270 269 269 268 267 266 266 265 265 264 264 264 264 264 263 263 263 262 262 262 262 262 262
298 297 296 296 295 295 294 294 293 293 293 292 292 292 291 291 290 290 290 289 289 289 288 287 286 285 284 283 282 281 280 279 278 277 276 275 274 272 271 270 269 268 268 267 267 266 266 265 264 264 263 263 263 262 262 262 262 262 262 261 261 261 261
Height
5492 5490 5489 5488 5487 5486 5484 5483 5481 5479 5476 5474 5474 5473 5471 5469 5466 5465 5466 5464 5462 5461 5459 5458 5457 5457 5456 5452 5449 5450 5449 5448 5447 5445 5443 5442 5440 5439 5438 5435 5431 5431 5434 5435 5435 5436 5435 5433 5432 5431 5432 5433 5432 5432 5432 5433 5433 5433 5433 5433 5433 5432 5431
5480 5477 5476 5475 5475 5474 5472 5471 5469 5467 5464 5462 5462 5460 5458 5456 5454 5453 5453 5451 5450 5450 5447 5445 5445 5446 5444 5440 5437 5437 5437 5436 5435 5433 5432 5430 5428 5427 5426 5424 5420 5419 5420 5421 5422 5423 5423 5422 5421 5420 5420 5420 5420 5419 5418 5419 5421 5420 5420 5420 5419 5419 5419
5467 5465 5464 5463 5462 5461 5460 5459 5457 5454 5452 5451 5450 5448 5446 5444 5442 5441 5441 5439 5439 5437 5434 5433 5433 5434 5432 5427 5425 5425 5424 5423 5422 5421 5420 5419 5417 5416 5415 5413 5409 5406 5407 5408 5409 5410 5411 5411 5410 5409 5408 5407 5407 5406 5405 5406 5407 5406 5406 5406 5406 5406 5406
5455 5453 5451 5450 5450 5448 5447 5446 5444 5442 5440 5439 5437 5435 5433 5431 5429 5428 5428 5427 5426 5425 5422 5420 5421 5422 5419 5414 5413 5414 5412 5410 5409 5408 5408 5407 5405 5404 5403 5401 5397 5394 5394 5394 5395 5397 5399 5399 5398 5398 5397 5395 5395 5394 5393 5393 5394 5393 5393 5394 5393 5394 5394
5442 5441 5439 5438 5437 5435 5433 5432 5431 5429 5427 5426 5424 5422 5420 5419 5417 5416 5415 5414 5413 5412 5409 5407 5408 5409 5406 5402 5401 5402 5400 5398 5397 5396 5395 5394 5393 5391 5390 5388 5385 5383 5381 5381 5383 5385 5386 5387 5386 5386 5385 5384 5383 5382 5381 5381 5381 5381 5381 5381 5381 5381 5381
5430 5428 5426 5425 5424 5422 5420 5419 5417 5415 5414 5413 5411 5408 5407 5406 5404 5403 5402 5401 5400 5398 5396 5395 5395 5395 5393 5390 5390 5390 5388 5386 5384 5383 5382 5382 5380 5378 5376 5374 5373 5372 5369 5369 5372 5373 5373 5374 5375 5374 5373 5373 5371 5370 5369 5369 5369 5369 5369 5368 5368 5368 5368
5417 5415 5413 5412 5411 5409 5407 5405 5404 5403 5401 5399 5397 5396 5394 5393 5391 5390 5389 5388 5387 5386 5383 5383 5383 5382 5380 5378 5378 5378 5376 5374 5372 5370 5369 5369 5367 5364 5362 5361 5360 5359 5358 5358 5360 5360 5361 5363 5362 5362 5362 5361 5359 5358 5358 5358 5357 5356 5356 5355 5355 5356 5356
5404 5402 5400 5398 5397 5396 5394 5392 5391 5390 5388 5386 5384 5383 5381 5380 5378 5377 5376 5375 5374 5373 5371 5370 5370 5368 5367 5366 5366 5365 5363 5361 5360 5358 5357 5356 5354 5351 5349 5349 5347 5347 5347 5348 5348 5349 5350 5351 5350 5350 5350 5349 5347 5347 5348 5346 5343 5343 5344 5342 5343 5345 5345
5390 5389 5387 5385 5384 5382 5380 5378 5377 5376 5374 5373 5371 5369 5368 5366 5365 5363 5362 5362 5361 5360 5358 5357 5356 5355 5354 5353 5353 5352 5351 5349 5348 5346 5345 5344 5342 5339 5337 5336 5335 5335 5336 5336 5337 5338 5338 5338 5339 5339 5338 5337 5336 5336 5334 5331 5329 5331 5332 5331 5331 5333 5333
5377 5375 5374 5373 5371 5369 5367 5365 5364 5362 5361 5359 5357 5356 5354 5352 5351 5350 5349 5348 5348 5347 5346 5344 5343 5343 5342 5341 5340 5339 5338 5337 5336 5334 5333 5332 5329 5327 5326 5324 5323 5324 5325 5325 5326 5327 5327 5326 5328 5328 5326 5325 5324 5322 5320 5318 5318 5319 5319 5318 5320 5323 5322
5364 5363 5361 5360 5359 5357 5355 5353 5351 5349 5348 5346 5344 5342 5341 5339 5338 5337 5336 5335 5335 5334 5333 5332 5331 5330 5329 5328 5328 5327 5326 5325 5323 5322 5321 5319 5317 5316 5314 5313 5312 5312 5313 5313 5314 5315 5315 5315 5317 5316 5313 5312 5311 5309 5307 5306 5305 5306 5306 5307 5309 5312 5312
5352 5350 5349 5347 5346 5345 5342 5340 5338 5336 5335 5333 5331 5329 5327 5327 5326 5324 5324 5323 5323 5322 5321 5319 5319 5318 5318 5317 5316 5316 5314 5313 5312 5310 5308 5306 5305 5304 5303 5302 5301 5301 5301 5301 5303 5303 5303 5305 5305 5302 5301 5301 5299 5296 5294 5293 5293 5294 5295 5296 5298 5301 5301
5339 5338 5336 5335 5334 5332 5330 5328 5326 5324 5322 5320 5319 5316 5314 5314 5314 5312 5312 5312 5311 5310 5309 5308 5307 5306 5306 5306 5305 5304 5302 5301 5300 5298 5296 5294 5293 5292 5293 5292 5290 5289 5289 5289 5290 5291 5293 5293 5291 5289 5289 5289 5285 5282 5281 5282 5282 5282 5282 5284 5286 5289 5288
5327 5325 5324 5322 5321 5319 5318 5316 5314 5312 5310 5308 5307 5304 5301 5301 5302 5301 5300 5300 5299 5298 5297 5296 5295 5295 5295 5294 5293 5292 5291 5289 5287 5286 5284 5282 5282 5282 5282 5281 5279 5278 5277 5277 5277 5279 5281 5280 5277 5277 5277 5275 5271 5270 5271 5271 5270 5270 5270 5272 5274 5276 5275
5315 5313 5311 5309 5308 5307 5306 5303 5301 5300 5298 5296 5295 5292 5290 5289 5289 5290 5290 5289 5288 5286 5286 5285 5283 5283 5283 5282 5282 5281 5279 5276 5275 5273 5272 5271 5271 5271 5270 5269 5269 5267 5265 5264 5265 5267 5268 5267 5266 5264 5263 5261 5259 5259 5260 5258 5257 5258 5259 5261 5262 5264 5264
5303 5301 5299 5297 5296 5295 5294 5291 5289 5288 5287 5285 5283 5281 5279 5278 5278 5278 5278 5278 5277 5275 5274 5273 5272 5271 5271 5270 5271 5269 5266 5264 5262 5260 5260 5260 5260 5259 5257 5257 5258 5256 5252 5251 5253 5255 5255 5254 5253 5251 5250 5249 5248 5248 5247 5245 5245 5247 5248 5249 5250 5252 5252
5290 5289 5288 5286 5284 5283 5282 5280 5278 5277 5276 5274 5272 5270 5268 5268 5267 5266 5266 5266 5266 5265 5264 5262 5260 5259 5258 5258 5259 5257 5253 5251 5250 5249 5249 5248 5247 5246 5246 5247 5247 5243 5240 5240 5240 5242 5243 5242 5240 5238 5237 5237 5236 5236 5235 5233 5235 5237 5236 5236 5238 5241 5241
5279 5277 5276 5275 5274 5272 5272 5270 5268 5267 5265 5263 5261 5259 5257 5257 5256 5255 5254 5254 5253 5253 5253 5251 5249 5248 5247 5246 5246 5244 5240 5238 5237 5237 5237 5235 5234 5233 5234 5236 5234 5231 5229 5228 5227 5228 5230 5230 5228 5226 5225 5225 5224 5224 5223 5223 5225 5225 5224 5224 5228 5229 5229
5269 5267 5265 5264 5263 5262 5261 5259 5257 5256 5254 5252 5250 5248 5246 5245 5245 5244 5243 5242 5241 5241 5240 5239 5238 5236 5235 5234 5233 5230 5228 5225 5223 5224 5225 5222 5220 5222 5224 5223 5220 5218 5217 5216 5214 5215 5217 5218 5217 5215 5214 5214 5213 5212 5211 5213 5215 5213 5211 5214 5217 5216 5214
5259 5257 5255 5253 5252 5251 5250 5248 5247 5245 5243 5241 5239 5236 5235 5234 5233 5232 5231 5230 5229 5229 5228 5227 5226 5224 5224 5223 5221 5219 5217 5214 5211 5211 5212 5210 5209 5211 5212 5208 5205 5206 5206 5204 5203 5205 5205 5205 5205 5204 5203 5203 5202 5201 5200 5201 5203 5202 5201 5202 5203 5203 5202
5249 5247 5245 5243 5241 5240 5239 5238 5236 5234 5231 5230 5228 5225 5223 5222 5221 5220 5219 5219 5218 5217 5216 5215 5214 5213 5212 5210 5209 5208 5206 5203 5200 5198 5198 5199 5199 5200 5198 5194 5193 5195 5194 5192 5193 5194 5194 5194 5194 5193 5192 5191 5191 5191 5189 5188 5189 5190 5190 5190 5190 5190 5189
5239 5237 5235 5233 5231 5230 5228 5227 5225 5223 5220 5218 5217 5214 5212 5211 5209 5208 5207 5208 5207 5206 5205 5204 5203 5202 5200 5199 5198 5197 5195 5193 5191 5187 5186 5187 5188 5187 5184 5182 5182 5183 5182 5182 5183 5183 5183 5184 5184 5183 5182 5180 5179 5178 5177 5175 5174 5175 5175 5176 5177 5177 5176
5230 5228 5226 5224 5221 5220 5218 5217 5215 5213 5210 5208 5206 5204 5201 5199 5198 5197 5196 5196 5196 5196 5194 5193 5192 5191 5189 5188 5186 5185 5184 5182 5180 5178 5176 5176 5176 5174 5172 5171 5171 5171 5171 5170 5171 5171 5172 5173 5172 5171 5170 5169 5167 5166 5163 5161 5160 5160 5160 5161 5163 5164 5165
5221 5219 5217 5215 5213 5210 5208 5207 5204 5202 5200 5198 5196 5193 5191 5189 5188 5186 5185 5185 5185 5184 5184 5183 5181 5180 5179 5177 5175 5174 5172 5171 5169 5167 5165 5164 5162 5161 5159 5157 5158 5159 5159 5158 5158 5159 5159 5160 5160 5159 5158 5157 5154 5151 5149 5148 5147 5147 5147 5147 5149 5151 5153
5212 5210 5208 5207 5205 5202 5198 5196 5194 5192 5190 5188 5186 5184 5181 5180 5178 5176 5175 5174 5173 5173 5172 5171 5170 5168 5167 5166 5164 5162 5161 5159 5158 5155 5153 5151 5149 5147 5145 5144 5143 5144 5143 5144 5146 5147 5147 5147 5147 5146 5145 5143 5140 5137 5136 5136 5135 5135 5134 5134 5135 5137 5139
5204 5202 5200 5198 5196 5193 5189 5186 5184 5182 5180 5177 5176 5173 5171 5169 5167 5165 5164 5163 5162 5161 5160 5158 5157 5155 5154 5152 5150 5149 5148 5147 5145 5142 5140 5138 5136 5134 5132 5130 5129 5128 5128 5128 5130 5131 5133 5134 5133 5132 5131 5130 5127 5125 5124 5123 5122 5121 5121 5121 5121 5122 5125
5195 5193 5192 5190 5186 5183 5180 5178 5175 5172 5169 5166 5164 5163 5160 5158 5156 5154 5153 5152 5152 5150 5147 5145 5143 5141 5139 5138 5136 5135 5134 5133 5131 5129 5127 5125 5123 5121 5119 5117 5115 5114 5113 5113 5114 5115 5116 5118 5118 5118 5118 5118 5116 5115 5114 5111 5109 5108 5109 5109 5108 5108 5112
5185 5183 5182 5179 5176 5173 5171 5169 5165 5162 5158 5155 5153 5151 5149 5147 5145 5143 5142 5142 5140 5137 5134 5132 5130 5127 5126 5124 5123 5121 5120 5118 5117 5116 5114 5112 5110 5108 5106 5104 5102 5101 5100 5100 5100 5100 5100 5101 5102 5102 5104 5104 5104 5104 5103 5100 5097 5097 5097 5096 5095 5096 5101
5174 5172 5171 5168 5164 5162 5161 5158 5155 5151 5146 5143 5142 5139 5137 5136 5134 5131 5131 5131 5127 5123 5121 5119 5116 5115 5113 5111 5110 5109 5107 5105 5103 5102 5101 5099 5097 5095 5093 5091 5089 5088 5087 5087 5086 5085 5086 5086 5086 5087 5088 5088 5089 5090 5090 5089 5087 5086 5085 5084 5083 5085 5089
5162 5160 5159 5156 5153 5150 5148 5147 5145 5141 5136 5133 5131 5127 5126 5126 5122 5118 5119 5118 5114 5109 5108 5107 5105 5102 5100 5098 5096 5095 5094 5092 5090 5088 5087 5085 5083 5081 5080 5078 5077 5075 5074 5073 5072 5072 5072 5071 5071 5072 5072 5073 5074 5075 5075 5075 5074 5074 5073 5072 5073 5075 5078
5150 5147 5145 5143 5141 5139 5136 5134 5132 5129 5125 5123 5119 5116 5117 5115 5109 5105 5106 5105 5101 5097 5096 5095 5093 5091 5088 5085 5082 5080 5078 5077 5075 5074 5073 5071 5069 5067 5066 5064 5064 5062 5060 5058 5057 5058 5058 5057 5057 5057 5058 5059 5059 5060 5061 5060 5060 5060 5060 5061 5062 5065 5067
5137 5134 5132 5129 5128 5126 5124 5123 5120 5117 5114 5111 5107 5106 5107 5104 5097 5093 5093 5092 5088 5085 5083 5081 5079 5077 5075 5072 5070 5067 5064 5062 5060 5059 5058 5057 5056 5054 5052 5051 5050 5049 5047 5045 5045 5044 5044 5044 5044 5044 5045 5045 5046 5047 5047 5047 5047 5047 5048 5049 5050 5053 5055
5126 5123 5120 5118 5115 5113 5111 5110 5108 5105 5102 5099 5097 5096 5095 5091 5086 5083 5081 5079 5076 5073 5070 5068 5066 5063 5061 5059 5057 5055 5053 5051 5048 5047 5045 5043 5042 5041 5040 5038 5037 5035 5034 5034 5033 5032 5031 5032 5032 5031 5032 5032 5033 5034 5035 5036 5036 5036 5037 5038 5039 5042 5044
5114 5112 5110 5107 5105 5102 5100 5098 5095 5093 5090 5088 5086 5085 5082 5078 5075 5072 5069 5067 5065 5062 5059 5056 5054 5051 5049 5047 5045 5043 5041 5039 5037 5035 5033 5031 5029 5028 5026 5025 5023 5022 5021 5021 5021 5020 5019 5019 5019 5019 5019 5020 5021 5022 5023 5024 5025 5026 5026 5027 5029 5031 5033
5107 5104 5101 5098 5096 5093 5091 5088 5086 5083 5080 5077 5076 5074 5071 5068 5065 5062 5058 5055 5053 5050 5048 5046 5043 5040 5038 5035 5033 5030 5028 5025 5023 5021 5020 5018 5017 5015 5013 5012 5010 5008 5007 5007 5006 5006 5007 5006 5006 5006 5007 5007 5008 5009 5010 5012 5014 5015 5016 5017 5018 5020 5022
5102 5098 5094 5091 5088 5086 5083 5080 5077 5074 5072 5069 5066 5064 5061 5059 5056 5053 5049 5046 5042 5039 5036 5033 5030 5028 5025 5022 5019 5017 5014 5012 5010 5008 5005 5004 5002 5001 5000 4998 4996 4995 4993 4992 4992 4992 4992 4992 4992 4993 4994 4994 4995 4996 4998 4999 5001 5003 5004 5006 5007 5009 5011